Regional Weather Roundup
Issued by NWS

Home | Current Version | Previous Version | Graphics & Text | Print | Product List | Glossary On
Versions: 1 2 3 4 5 6 7 8 9 10 11 12 13 14 15 16 17 18 19 20 21 22 23 24 25 26 27 28 29 30 31 32 33 34 35 36 37 38 39 40 41 42 43 44 45 46 47 48 49 50
655
ASUS43 KMKX 191211
RWRWI

WISCONSIN REGIONAL WEATHER ROUNDUP
NATIONAL WEATHER SERVICE MILWAUKEE/SULLIVAN WI
600 AM CST SUN FEB 19 2017

NOTE: "FAIR" INDICATES FEW OR NO CLOUDS BELOW 12,000 FEET WITH NO
SIGNIFICANT WEATHER AND/OR OBSTRUCTIONS TO VISIBILITY.

WIZ001-002-006>008-014>016-023>028-191300-
NORTHWEST WISCONSIN

CITY           SKY/WX    TMP DP  RH WIND       PRES   REMARKS
SUPERIOR ARPT  CLOUDY    26  26  97 CALM      29.95R
6HR MIN TEMP:  26; 6HR MAX TEMP:  41;

ASHLAND        CLOUDY    32  27  81 CALM      29.95R
6HR MIN TEMP:  30; 6HR MAX TEMP:  42;

HAYWARD        CLEAR     27  24  89 CALM      29.94R
6HR MIN TEMP:  26; 6HR MAX TEMP:  34;

SIREN          PTCLDY    27  26  96 CALM      29.94R
6HR MIN TEMP:  27; 6HR MAX TEMP:  40;

CUMBERLAND     CLEAR     30  28  93 CALM      29.94R
RICE LAKE      CLEAR     29  28  98 CALM      29.95R
6HR MIN TEMP:  29; 6HR MAX TEMP:  37;

CHETEK         CLEAR     28  28  99 CALM      29.95R FOG
6HR MIN TEMP:  27; 6HR MAX TEMP:  35;

LADYSMITH      CLEAR     29  28  96 CALM      29.95R
6HR MIN TEMP:  29; 6HR MAX TEMP:  38;

EAU CLAIRE     PTCLDY    28  27  96 SW3       29.95R FOG
6HR MIN TEMP:  27; 6HR MAX TEMP:  38;

MENOMONIE      CLEAR     29  28  96 CALM      29.94S
6HR MIN TEMP:  28; 6HR MAX TEMP:  36;

NEW RICHMOND   CLOUDY    30  30  99 CALM      29.94R
6HR MIN TEMP:  29; 6HR MAX TEMP:  36;

OSCEOLA        CLEAR     30  30 100 CALM      29.96R
6HR MIN TEMP:  27; 6HR MAX TEMP:  35;

$$

WIZ003>005-009-010-017-018-191300-
NORTH CENTRAL WISCONSIN

CITY           SKY/WX    TMP DP  RH WIND       PRES   REMARKS
MANITOWISH WTR PTCLDY    24  24 100 CALM      29.93R
6HR MIN TEMP:  23; 6HR MAX TEMP:  37;

ARBOR VITAE    CLEAR     29  27  92 CALM      29.93R
6HR MIN TEMP:  27; 6HR MAX TEMP:  42;

WOODRUFF       CLEAR     29  27  92 CALM      29.93R
6HR MIN TEMP:  27; 6HR MAX TEMP:  42;

RHINELANDER    CLEAR     31  28  89 CALM      29.93R
6HR MIN TEMP:  31; 6HR MAX TEMP:  44;

EAGLE RIVER    CLEAR     26  22  88 CALM      29.92R
6HR MIN TEMP:  26; 6HR MAX TEMP:  41;

LAND O LAKES   CLEAR     26  24  92 CALM      29.93R
6HR MIN TEMP:  26; 6HR MAX TEMP:  42;

PHILLIPS       CLEAR     27  27 100 CALM      29.92R
6HR MIN TEMP:  26; 6HR MAX TEMP:  42;

TOMAHAWK       CLEAR     28  26  95 CALM      29.94R
6HR MIN TEMP:  28; 6HR MAX TEMP:  42;

MEDFORD        CLEAR     31  29  94 CALM      29.92R
6HR MIN TEMP:  30; 6HR MAX TEMP:  40;

MERRILL        NOT AVBL
$$

WIZ029-030-035-036-043>047-191300-
CENTRAL WISCONSIN

CITY           SKY/WX    TMP DP  RH WIND       PRES   REMARKS
WAUSAU         CLEAR     31  30  96 CALM      29.93R
6HR MIN TEMP:  31; 6HR MAX TEMP:  41;

MOSINEE        CLEAR     34  34 100 CALM      29.95R
MARSHFIELD     CLEAR     31  29  92 CALM      29.93R
6HR MIN TEMP:  30; 6HR MAX TEMP:  40;

STEVENS POINT  CLEAR     25  25 100 CALM      29.95S
6HR MIN TEMP:  25; 6HR MAX TEMP:  40;

WAUPACA        CLEAR     37  32  83 CALM      29.96R
6HR MIN TEMP:  36; 6HR MAX TEMP:  45;

WAUTOMA        CLEAR     29  26  89 CALM      29.96R
6HR MIN TEMP:  28; 6HR MAX TEMP:  38;

WISC RAPIDS    CLEAR     27  27 100 CALM      29.96R
6HR MIN TEMP:  27; 6HR MAX TEMP:  35;

CAMP DOUGLAS   CLEAR     26  24  94 CALM      29.96R
6HR MIN TEMP:  25; 6HR MAX TEMP:  31;

$$

WIZ011>013-019>022-031-037>040-048>050-191300-
NORTHEAST WISCONSIN

CITY           SKY/WX    TMP DP  RH WIND       PRES   REMARKS
ANTIGO         CLEAR     26  26  99 CALM      29.94R
6HR MIN TEMP:  26; 6HR MAX TEMP:  37;

SHAWANO        CLOUDY    38  32  77 SW3       29.94R
6HR MIN TEMP:  38; 6HR MAX TEMP:  45;

OCONTO         MOCLDY    31  28  87 CALM      29.93R
6HR MIN TEMP:  31; 6HR MAX TEMP:  41;

STURGEON BAY   CLOUDY    40  29  64 W5        29.93R
6HR MIN TEMP:  40; 6HR MAX TEMP:  45;

GREEN BAY      PTCLDY    34  32  92 SW3       29.95R
6HR MIN TEMP:  34; 6HR MAX TEMP:  44;

MANITOWOC      CLEAR     42  31  64 MISG      29.95R
6HR MIN TEMP:  42; 6HR MAX TEMP:  46;

APPLETON       PTCLDY    36  28  75 W10       29.94R WCI  28
CLINTONVILLE   PTCLDY    36  30  80 W3        29.94R
OSHKOSH        CLEAR     38  30  73 W5        29.95R WCI  34
6HR MIN TEMP:  38; 6HR MAX TEMP:  43;

$$

WIZ032>034-041-042-053>061-191300-
SOUTHWEST WISCONSIN

CITY           SKY/WX    TMP DP  RH WIND       PRES   REMARKS
LA CROSSE      CLEAR     30  28  92 SE6       29.97R WCI  24
6HR MIN TEMP:  28; 6HR MAX TEMP:  36;

SPARTA         CLEAR     23  22  99 CALM      29.98R
6HR MIN TEMP:  22; 6HR MAX TEMP:  30;

VIROQUA        CLEAR     41  32  70 CALM      29.95R
6HR MIN TEMP:  38; 6HR MAX TEMP:  46;

BOSCOBEL       CLEAR     26  23  88 CALM      29.98R
6HR MIN TEMP:  25; 6HR MAX TEMP:  30;

PRAIRIE DU CHI   N/A     28  27  96 CALM      29.97R FOG
6HR MIN TEMP:  28; 6HR MAX TEMP:  32;

PLATTEVILLE    CLEAR     37  35  93 CALM      29.97R
6HR MIN TEMP:  35; 6HR MAX TEMP:  40;

$$

WIZ056-057-062-063-064-067-068-191300-
SOUTH CENTRAL WISCONSIN

CITY           SKY/WX    TMP DP  RH WIND       PRES   REMARKS
REEDSBURG      CLEAR     27  27 100 CALM      29.96S
6HR MIN TEMP:  26; 6HR MAX TEMP:  32;

BARABOO/DELLS  CLEAR     32  29  88 S3        29.96R
6HR MIN TEMP:  30; 6HR MAX TEMP:  35;

LONE ROCK      CLEAR     26  24  92 CALM      29.98R
6HR MIN TEMP:  26; 6HR MAX TEMP:  31;

MINERAL POINT  CLEAR     43  32  65 CALM      29.95S
MADISON        PTCLDY    29  27  92 CALM      29.97R
6HR MIN TEMP:  27; 6HR MAX TEMP:  32;

MIDDLETON      CLEAR     31  29  94 CALM      29.97S
6HR MIN TEMP:  31; 6HR MAX TEMP:  34;

WATERTOWN      CLEAR     26  26 100 CALM      29.97R
6HR MIN TEMP:  26; 6HR MAX TEMP:  32;

MONROE         CLEAR     46  30  53 NE5       29.96R
JANESVILLE     CLEAR     30  30 100 CALM      29.97R FOG
$$

WIZ051-052-058>065-066-070>072-191300-
SOUTHEAST WISCONSIN

CITY           SKY/WX    TMP DP  RH WIND       PRES   REMARKS
MILWAUKEE      CLEAR     44  30  57 NW8       29.96R
6HR MIN TEMP:  34; 6HR MAX TEMP:  50;

WAUKESHA       CLEAR     39  28  65 W3        29.96R
MILWAUKEE/TIMM CLEAR     37  30  75 CALM      29.97R
RACINE         CLEAR     42  30  62 NW8       29.98R
6HR MIN TEMP:  41; 6HR MAX TEMP:  47;

KENOSHA        CLEAR     41  31  67 NW3       29.97R
6HR MIN TEMP:  35; 6HR MAX TEMP:  44;

FOND DU LAC    CLEAR     32  27  81 CALM      29.96R
6HR MIN TEMP:  32; 6HR MAX TEMP:  46;

SHEBOYGAN      CLEAR     41  31  67 W7        29.95R
6HR MIN TEMP:  38; 6HR MAX TEMP:  46;

WEST BEND      CLEAR     39  32  75 CALM      29.96R
JUNEAU         CLEAR     32  29  90 CALM      29.97R
6HR MIN TEMP:  32; 6HR MAX TEMP:  42;

$$

LSZ147-162-191300-
LAKE SUPERIOR

STATION/POSITION TIME  TEMP    WIND        PRES    WAVE
                       AIR SEA DIR/SP/G            HT/PER
                 (UTC) (F)     (DEG/KT/KT) (MB)    (FT/S)
DEVILS ISLAND    1200   37     250/  3/  4 1015.0R
PORT WING        1140   30     130/  3/  4 1013.9S
SAXON HARBOR     1140   29     200/  4/  5 1013.9R
$$

LMZ867-665-643>646-191300-
LAKE MICHIGAN

STATION/POSITION TIME  TEMP    WIND        PRES    WAVE
                       AIR SEA DIR/SP/G            HT/PER
                 (UTC) (F)     (DEG/KT/KT) (MB)    (FT/S)
CHAMBERS ISLAND  1140   34     190/  4/  4 1012.9R
NORTHPORT PIER   1140   44     280/  6/ 10 1012.9R
SISTER BAY



USA.gov is the U.S. government's official web portal to all federal, state and local government web resources and services.